Location: Unspecified
(0.0000°N, 0.0000°E)
Time: 18:00:44
(UTC+00:00)

Explorer 7 - Visible Passes

Search period start: 22 July 2024 00:00
Search period end: 01 August 2024 00:00
Orbit: 465 x 618 km, 50.3° (Epoch: 22 July)

Date Brightness Start Highest point End Pass type
(mag) Time Alt. Az. Time Alt. Az. Time Alt. Az.
22 Jul 9.3 20:02:05 10° SW 20:02:34 13° SW 20:02:34 13° SW visible
23 Jul 7.4 19:53:52 10° SW 19:57:56 57° NW 19:58:05 57° NW visible
24 Jul 8.3 19:45:47 10° WSW 19:49:37 37° NW 19:53:37 10° NNE visible
25 Jul 9.1 19:37:51 10° WSW 19:41:17 25° NW 19:44:50 10° N visible
26 Jul 9.8 19:30:11 10° W 19:32:56 17° NW 19:35:47 10° N visible
27 Jul 10.2 19:23:07 10° WNW 19:24:35 12° NW 19:26:05 10° NNW visible
28 Jul 7.9 05:37:22 10° NNW 05:41:27 50° NE 05:45:20 10° SE visible
29 Jul 7.0 05:28:48 10° NNW 05:33:01 79° NE 05:37:02 10° SE visible
30 Jul 6.7 05:20:20 10° NW 05:24:32 67° SW 05:28:33 10° SSE visible
31 Jul 10.1 03:35:14 10° NNE 03:36:28 11° NE 03:37:41 10° ENE visible
31 Jul 7.1 05:12:00 10° NW 05:16:02 43° SW 05:19:54 10° SSE visible
